CW1509 Weather Reports


Display with metric or nautical units.
time (UTC)temp
F
wind
direction
speed
MPH
gust
MPH
rain 1hr
in
rain 24hr
in
rain mn
in
humidity
%
barometer
mb
20260905083428 74 183 0.0 0.0 0.00 0.10 0.00 93 1013.3
20260905082926 74 183 0.0 0.0 0.00 0.10 0.00 93 1013.3
20260905082425 74 178 0.0 1.0 0.00 0.10 0.00 93 1013.3
20260905081924 74 165 0.0 1.0 0.00 0.10 0.00 93 1013.2
20260905081422 74 141 0.0 0.0 0.00 0.10 0.00 93 1013.1
20260905080920 74 141 0.0 0.0 0.00 0.10 0.00 93 1013.1
20260905080419 74 141 0.0 0.0 0.00 0.10 0.00 93 1013.1
20260905075919 74 116 0.0 0.0 0.00 0.10 0.00 93 1013.2
20260905075419 74 73 0.0 2.0 0.00 0.10 0.00 93 1013.3
20260905074919 74 34 0.0 2.0 0.00 0.10 0.00 93 1013.3
20260905074418 74 61 0.0 3.0 0.00 0.10 0.00 93 1013.2
20260905073916 74 74 1.0 3.0 0.00 0.10 0.00 93 1013.3
20260905073434 74 73 1.0 3.0 0.00 0.10 0.00 93 1013.3
20260905072912 74 55 0.0 0.0 0.00 0.10 0.00 93 1013.4
20260905072410 74 52 0.0 0.0 0.00 0.10 0.00 93 1013.3
20260905071930 74 355 0.0 0.0 0.00 0.10 0.00 93 1013.3
20260905071449 74 22 0.0 0.0 0.00 0.10 0.00 93 1013.1
20260905070927 74 55 0.0 0.0 0.00 0.10 0.00 93 1013.1
20260905070428 74 55 0.0 2.0 0.00 0.10 0.00 93 1013.2
20260905065927 74 77 0.0 4.0 0.00 0.10 0.00 93 1013.2
20260905065448 74 65 0.0 5.0 0.00 0.10 0.00 92 1013.3
20260905064927 74 74 2.0 5.0 0.00 0.10 0.00 92 1013.3
20260905064447 74 26 0.0 4.0 0.00 0.10 0.00 92 1013.1
20260905063926 74 53 1.0 5.0 0.00 0.10 0.00 92 1012.8
20260905063445 74 5 2.0 12.0 0.00 0.10 0.00 92 1012.8
20260905062924 75 88 2.0 12.0 0.00 0.10 0.00 92 1012.9
20260905062422 75 72 3.0 9.0 0.00 0.10 0.00 91 1013.1
20260905061922 75 13 4.0 9.0 0.00 0.10 0.00 91 1013.3
20260905061423 76 32 3.0 5.0 0.00 0.10 0.00 92 1013.4
20260905060923 76 360 1.0 2.0 0.00 0.10 0.00 92 1013.2
20260905060423 76 5 0.0 2.0 0.00 0.10 0.00 92 1012.9
20260905055923 76 13 0.0 2.0 0.00 0.10 0.00 92 1012.9
20260905055420 76 324 1.0 2.0 0.00 0.10 0.00 92 1013.1
20260905054919 76 69 0.0 0.0 0.00 0.10 0.00 92 1012.9
20260905054418 76 69 0.0 0.0 0.00 0.10 0.00 92 1012.9
20260905053917 76 69 0.0 0.0 0.00 0.10 0.00 92 1012.9
20260905053416 76 69 0.0 1.0 0.00 0.10 0.00 92 1013.1
20260905052915 76 69 0.0 1.0 0.00 0.10 0.00 92 1012.9
20260905052415 76 69 0.0 0.0 0.00 0.10 0.00 92 1012.7
20260905051914 76 69 0.0 0.0 0.00 0.10 0.00 92 1012.9
20260905051433 76 69 0.0 0.0 0.00 0.10 0.00 92 1013.1
20260905050913 77 69 0.0 0.0 0.00 0.10 0.00 92 1013.2
20260905050412 77 69 0.0 0.0 0.00 0.10 0.00 92 1013.4
20260905045910 77 69 0.0 2.0 0.00 0.10 0.00 92 1013.6
20260905045429 77 69 0.0 2.0 0.00 0.10 0.00 92 1013.5
20260905044928 77 69 0.0 1.0 0.00 0.10 0.00 92 1013.5
20260905044427 77 69 0.0 0.0 0.00 0.10 0.00 92 1013.5
20260905043926 77 112 0.0 0.0 0.00 0.10 0.00 92 1013.2
20260905043442 77 166 0.0 0.0 0.00 0.10 0.00 91 1013.1
20260905042920 77 166 0.0 0.0 0.00 0.10 0.00 91 1013.2
20260905042418 77 166 0.0 0.0 0.00 0.10 0.00 91 1013.3
20260905041919 77 166 0.0 0.0 0.00 0.10 0.00 91 1013.3
20260905041438 77 166 0.0 0.0 0.00 0.10 0.00 91 1013.4
20260905040917 78 55 0.0 0.0 0.01 0.10 0.00 91 1013.5
20260905040417 78 55 0.0 1.0 0.01 0.10 0.10 91 1013.6
20260905035918 78 55 0.0 2.0 0.01 0.10 0.10 91 1013.6
20260905035416 78 55 0.0 2.0 0.01 0.10 0.10 91 1013.7
20260905034915 78 44 0.0 0.0 0.01 0.10 0.10 91 1013.7
20260905034415 78 44 0.0 0.0 0.01 0.10 0.10 90 1013.7
20260905033935 78 44 0.0 0.0 0.01 0.10 0.10 90 1013.7
20260905033413 79 44 0.0 0.0 0.01 0.10 0.10 90 1013.7
20260905032913 79 44 0.0 0.0 0.01 0.10 0.10 90 1013.8
20260905032432 79 63 0.0 0.0 0.01 0.10 0.10 90 1013.8
20260905031930 79 63 0.0 0.0 0.01 0.10 0.10 89 1013.9
20260905031429 79 63 0.0 0.0 0.00 0.09 0.09 89 1014.0
20260905030949 79 63 0.0 0.0 0.00 0.09 0.09 88 1014.0
20260905030426 79 63 0.0 0.0 0.00 0.09 0.09 88 1014.0
20260905025926 79 63 0.0 0.0 0.00 0.09 0.09 88 1014.0
20260905025426 79 63 0.0 0.0 0.00 0.09 0.09 88 1014.0
20260905024944 79 63 0.0 0.0 0.00 0.09 0.09 88 1014.1
20260905024422 80 63 0.0 0.0 0.00 0.09 0.09 88 1014.1
20260905023922 80 63 0.0 0.0 0.00 0.09 0.09 88 1014.2
20260905023441 80 63 0.0 0.0 0.00 0.09 0.09 88 1014.1
20260905022921 80 63 0.0 0.0 0.00 0.09 0.09 88 1014.1
20260905022420 80 63 0.0 0.0 0.00 0.09 0.09 88 1014.1
20260905021919 80 63 0.0 0.0 0.00 0.09 0.09 88 1014.1
20260905021419 80 63 0.0 0.0 0.00 0.09 0.09 88 1014.2
20260905020918 80 63 0.0 0.0 0.00 0.09 0.09 87 1014.1
20260905020437 80 63 0.0 0.0 0.00 0.09 0.09 88 1014.0
20260905015916 80 63 0.0 0.0 0.00 0.09 0.09 88 1013.9
20260905015414 80 63 0.0 0.0 0.00 0.09 0.09 88 1013.8
20260905014912 80 63 0.0 0.0 0.00 0.09 0.09 87 1013.7
20260905014440 80 63 0.0 0.0 0.00 0.09 0.09 87 1013.6
20260905013917 80 63 0.0 2.0 0.00 0.09 0.09 87 1013.7
20260905013418 80 63 0.0 2.0 0.00 0.09 0.09 87 1013.7
20260905012915 80 51 0.0 2.0 0.00 0.09 0.09 86 1013.6
20260905012414 80 70 1.0 2.0 0.00 0.09 0.09 86 1013.6
20260905011935 81 70 0.0 0.0 0.00 0.09 0.09 86 1013.7
20260905011413 81 70 0.0 0.0 0.00 0.09 0.09 86 1013.5
20260905010914 81 70 0.0 3.0 0.00 0.09 0.09 85 1013.4
20260905010412 81 70 1.0 3.0 0.00 0.09 0.09 85 1013.5
20260905005911 82 160 0.0 1.0 0.00 0.09 0.09 84 1013.5
20260905005428 82 160 0.0 1.0 0.00 0.09 0.09 84 1013.4
20260905004946 82 160 0.0 0.0 0.00 0.09 0.09 83 1013.4
20260905004425 83 160 0.0 0.0 0.00 0.09 0.09 82 1013.5
20260905003923 83 160 0.0 0.0 0.00 0.09 0.09 82 1013.4
20260905003424 83 160 0.0 0.0 0.00 0.09 0.09 81 1013.4
20260905002924 83 160 0.0 0.0 0.00 0.09 0.09 81 1013.4
20260905002444 84 160 0.0 0.0 0.00 0.09 0.09 80 1013.3
20260905001921 84 160 0.0 0.0 0.00 0.09 0.09 79 1013.2
20260905001419 85 160 0.0 0.0 0.00 0.09 0.09 78 1013.2
20260905000940 85 160 0.0 0.0 0.00 0.09 0.09 78 1013.3
20260905000420 85 160 0.0 0.0 0.00 0.09 0.09 78 1013.2
20260904235918 86 160 0.0 0.0 0.00 0.09 0.09 77 1013.2
20260904235437 86 160 0.0 1.0 0.00 0.09 0.09 75 1013.2
20260904234915 86 160 0.0 1.0 0.00 0.09 0.09 74 1013.3
20260904234415 86 160 0.0 0.0 0.00 0.09 0.09 74 1013.2
20260904233914 86 160 0.0 0.0 0.00 0.09 0.09 74 1013.2
20260904233413 87 160 0.0 1.0 0.00 0.09 0.09 73 1013.2
20260904232913 87 160 0.0 1.0 0.00 0.09 0.09 72 1013.3
20260904232433 87 160 0.0 1.0 0.00 0.09 0.09 73 1013.3
20260904231911 87 160 0.0 0.0 0.00 0.09 0.09 72 1013.3
20260904231411 87 160 0.0 1.0 0.00 0.09 0.09 72 1013.3
20260904230911 87 160 0.0 1.0 0.00 0.09 0.09 71 1013.2
20260904230429 87 184 0.0 1.0 0.00 0.09 0.09 71 1013.2
20260904225928 87 262 0.0 1.0 0.00 0.09 0.09 70 1013.2
20260904225427 88 262 0.0 2.0 0.00 0.09 0.09 70 1013.2
20260904224927 88 262 1.0 2.0 0.00 0.09 0.09 69 1013.0
20260904224424 88 245 1.0 3.0 0.00 0.09 0.09 69 1013.1
20260904223923 88 186 2.0 4.0 0.00 0.09 0.09 69 1012.9
20260904223422 88 173 1.0 4.0 0.00 0.09 0.09 69 1012.9
20260904222922 88 189 1.0 4.0 0.00 0.09 0.09 69 1012.9
20260904222423 88 169 1.0 4.0 0.00 0.09 0.09 69 1012.8
20260904221921 88 192 2.0 4.0 0.00 0.09 0.09 68 1012.7
20260904221439 88 190 1.0 3.0 0.00 0.09 0.09 68 1012.7
20260904220918 88 199 2.0 5.0 0.00 0.09 0.09 67 1012.6
20260904220417 88 225 1.0 5.0 0.00 0.09 0.09 67 1012.6
20260904220146 88 180 2.0 4.0 0.00 0.09 0.09 67 1012.7
20260904215425 88 199 2.0 5.0 0.00 0.09 0.09 66 1012.8
20260904214926 88 184 2.0 5.0 0.00 0.09 0.09 66 1012.8
20260904214425 88 257 2.0 5.0 0.00 0.09 0.09 67 1012.8
20260904213923 88 180 3.0 6.0 0.00 0.09 0.09 66 1012.7
20260904213444 88 234 2.0 3.0 0.00 0.09 0.09 66 1012.7
20260904212942 88 241 1.0 4.0 0.00 0.09 0.09 66 1012.8
20260904212421 88 234 2.0 4.0 0.00 0.09 0.09 66 1012.8
20260904211919 88 238 1.0 4.0 0.00 0.09 0.09 66 1012.7
20260904211421 88 163 1.0 5.0 0.00 0.09 0.09 67 1012.8
20260904210920 87 192 0.0 5.0 0.00 0.09 0.09 66 1012.8
20260904210418 87 241 3.0 5.0 0.00 0.09 0.09 66 1013.0
20260904205917 87 231 2.0 4.0 0.00 0.09 0.09 67 1012.9
20260904205415 87 244 2.0 3.0 0.00 0.09 0.09 70 1013.1
20260904204914 87 248 2.0 5.0 0.00 0.09 0.09 68 1013.2
20260904204413 87 209 2.0 5.0 0.00 0.09 0.09 67 1013.2
20260904203913 86 197 0.0 4.0 0.00 0.09 0.09 68 1013.3
20260904203412 86 220 1.0 3.0 0.00 0.09 0.09 69 1013.3
20260904202911 86 182 1.0 4.0 0.00 0.09 0.09 68 1013.3
20260904202431 86 75 1.0 4.0 0.00 0.09 0.09 69 1013.3
20260904201928 86 191 2.0 4.0 0.00 0.09 0.09 69 1013.3
20260904201427 86 182 0.0 4.0 0.00 0.09 0.09 70 1013.4
20260904200926 85 194 2.0 3.0 0.00 0.09 0.09 70 1013.7
20260904200620 85 201 1.0 2.0 0.00 0.09 0.09 70 1013.9
20260904200157 85 117 0.0 5.0 0.00 0.09 0.09 70 1013.8
20260904195449 85 188 1.0 5.0 0.00 0.09 0.09 73 1013.7
20260904195202 85 243 0.0 5.0 0.00 0.09 0.09 71 1013.8
20260904194420 84 98 1.0 4.0 0.00 0.09 0.09 73 1013.8
20260904193940 84 100 2.0 4.0 0.00 0.09 0.09 74 1013.7
20260904193525 84 98 0.0 4.0 0.00 0.09 0.09 74 1013.7
20260904192912 83 87 2.0 4.0 0.00 0.09 0.09 74 1013.8
20260904192411 83 112 1.0 6.0 0.00 0.09 0.09 75 1013.5
20260904191931 82 163 1.0 6.0 0.00 0.09 0.09 76 1013.1
20260904191429 82 166 1.0 4.0 0.00 0.09 0.09 77 1012.9
20260904190927 81 184 1.0 6.0 0.00 0.09 0.09 78 1013.2
20260904190426 81 182 3.0 6.0 0.00 0.09 0.09 77 1013.1
20260904185924 80 143 2.0 9.0 0.00 0.09 0.09 78 1013.2
20260904185424 80 230 1.0 9.0 0.00 0.09 0.09 78 1013.2
20260904184923 79 208 2.0 8.0 0.00 0.09 0.09 80 1013.2
20260904184422 79 185 3.0 9.0 0.00 0.09 0.09 81 1013.1
20260904183921 78 209 4.0 9.0 0.00 0.09 0.09 82 1013.1
20260904183420 78 180 2.0 7.0 0.00 0.09 0.09 82 1013.4
20260904182919 78 195 3.0 8.0 0.00 0.09 0.09 82 1013.9
20260904182419 78 162 1.0 8.0 0.00 0.09 0.09 83 1014.2
20260904181916 78 172 2.0 7.0 0.00 0.09 0.09 84 1014.5
20260904181416 78 165 3.0 6.0 0.00 0.09 0.09 85 1014.6
20260904180914 78 159 1.0 6.0 0.03 0.09 0.09 84 1014.9
20260904180416 78 148 1.0 6.0 0.06 0.09 0.09 84 1015.0
20260904175936 78 207 2.0 6.0 0.09 0.09 0.09 84 1014.9
20260904175412 78 192 1.0 6.0 0.09 0.09 0.09 84 1015.2
20260904174913 78 212 2.0 6.0 0.09 0.09 0.09 85 1015.3
20260904174412 78 215 1.0 5.0 0.09 0.09 0.09 86 1015.4
20260904173931 78 186 1.0 4.0 0.09 0.09 0.09 87 1015.7
20260904173450 78 123 1.0 3.0 0.09 0.09 0.09 86 1015.8
20260904172919 78 189 1.0 2.0 0.09 0.09 0.09 87 1016.3
20260904172419 78 186 0.0 2.0 0.09 0.09 0.09 86 1016.7
20260904171938 78 85 0.0 2.0 0.09 0.09 0.09 84 1017.0
20260904171417 78 85 0.0 2.0 0.09 0.09 0.09 83 1017.6
20260904170933 79 46 0.0 3.0 0.05 0.05 0.05 80 1018.0
20260904170452 79 48 1.0 4.0 0.03 0.03 0.03 78 1018.5
20260904165929 80 292 0.0 5.0 0.00 0.00 0.00 76 1019.0
20260904165427 80 11 3.0 9.0 0.00 0.00 0.00 72 1018.9
20260904164928 81 48 1.0 5.0 0.00 0.00 0.00 72 1018.8
20260904164447 81 57 3.0 6.0 0.00 0.00 0.00 72 1018.7
20260904163946 81 36 2.0 6.0 0.00 0.00 0.00 70 1017.3
20260904163426 81 63 2.0 6.0 0.00 0.00 0.00 71 1017.0
20260904162926 81 65 3.0 10.0 0.00 0.00 0.00 69 1017.0
20260904162435 81 75 4.0 10.0 0.00 0.00 0.00 70 1016.6
20260904161948 81 169 2.0 6.0 0.00 0.00 0.00 71 1016.4
20260904161426 81 81 2.0 6.0 0.00 0.00 0.00 72 1016.7
20260904160915 80 47 2.0 6.0 0.00 0.00 0.00 74 1016.8
20260904160413 80 76 3.0 4.0 0.00 0.00 0.00 74 1016.9
20260904155913 80 102 1.0 9.0 0.00 0.00 0.00 75 1016.9
20260904155413 79 88 4.0 9.0 0.00 0.00 0.00 74 1017.0
20260904154912 79 13 3.0 11.0 0.00 0.00 0.00 75 1016.9
20260904154412 79 70 4.0 11.0 0.00 0.00 0.00 74 1016.9
20260904153911 79 91 3.0 12.0 0.00 0.00 0.00 75 1017.0
20260904153431 79 17 5.0 12.0 0.00 0.00 0.00 75 1017.1
20260904152949 79 31 3.0 12.0 0.00 0.00 0.00 75 1017.0
20260904152447 79 76 4.0 9.0 0.00 0.00 0.00 75 1016.9
20260904151927 79 11 3.0 9.0 0.00 0.00 0.00 76 1016.9
20260904151425 79 17 4.0 11.0 0.00 0.00 0.00 77 1017.0
20260904150924 79 66 5.0 12.0 0.00 0.00 0.00 78 1017.0
20260904150423 78 76 6.0 12.0 0.00 0.00 0.00 78 1016.7
20260904145923 78 65 4.0 11.0 0.00 0.00 0.00 79 1016.7
20260904145423 78 39 2.0 9.0 0.00 0.00 0.00 81 1016.8
20260904144921 78 13 3.0 12.0 0.00 0.00 0.00 82 1016.7
20260904144422 78 79 3.0 10.0 0.00 0.00 0.00 83 1016.5
20260904143920 78 5 4.0 12.0 0.00 0.00 0.00 83 1016.6
20260904143420 79 36 4.0 12.0 0.00 0.00 0.00 84 1016.4
20260904142918 79 29 3.0 7.0 0.00 0.00 0.00 84 1016.4
20260904142417 79 341 3.0 7.0 0.00 0.00 0.00 84 1016.4
20260904141917 79 80 2.0 4.0 0.00 0.00 0.00 85 1016.5
20260904141416 78 34 1.0 3.0 0.00 0.00 0.00 85 1016.1
20260904140915 78 341 0.0 3.0 0.00 0.00 0.00 86 1016.0
20260904140414 78 14 0.0 4.0 0.00 0.00 0.00 86 1015.9
20260904135911 78 17 1.0 4.0 0.00 0.00 0.00 86 1015.8
20260904135426 78 5 1.0 3.0 0.00 0.00 0.00 87 1015.8
20260904134945 78 346 1.0 4.0 0.00 0.00 0.00 87 1015.8
20260904134423 77 63 0.0 4.0 0.00 0.00 0.00 88 1015.2
20260904133923 77 182 2.0 4.0 0.00 0.00 0.00 88 1015.1
20260904133423 77 24 0.0 5.0 0.00 0.00 0.00 88 1015.6
20260904132924 77 172 2.0 5.0 0.00 0.00 0.00 88 1015.1
20260904132423 76 5 1.0 4.0 0.00 0.00 0.00 89 1015.6
20260904131922 76 192 0.0 4.0 0.00 0.00 0.00 89 1015.3
20260904131442 76 11 0.0 0.0 0.00 0.00 0.00 89 1015.5
20260904130921 76 11 0.0 2.0 0.00 0.00 0.00 89 1015.3
20260904130419 76 11 0.0 2.0 0.00 0.00 0.00 90 1015.6
20260904125918 76 221 0.0 3.0 0.00 0.00 0.00 90 1015.4
20260904125439 75 31 1.0 3.0 0.00 0.00 0.00 90 1015.6
20260904124918 75 185 0.0 6.0 0.00 0.00 0.00 91 1014.7
20260904124417 75 191 2.0 6.0 0.00 0.00 0.00 91 1015.1
20260904123915 75 204 0.0 0.0 0.00 0.00 0.00 91 1014.6
20260904123413 74 184 0.0 0.0 0.00 0.00 0.00 92 1014.5
20260904122912 74 188 0.0 0.0 0.00 0.00 0.00 92 1014.5
20260904122412 74 170 0.0 0.0 0.00 0.00 0.00 92 1014.3
20260904121932 74 170 0.0 1.0 0.00 0.00 0.00 92 1014.4
20260904121430 74 167 0.0 1.0 0.00 0.00 0.00 92 1014.4
20260904120928 74 221 0.0 1.0 0.00 0.00 0.00 92 1014.4
20260904120429 74 221 0.0 0.0 0.00 0.00 0.00 91 1014.4
20260904115948 74 221 0.0 0.0 0.00 0.00 0.00 91 1014.4
20260904115447 74 221 0.0 0.0 0.00 0.00 0.00 91 1014.4
20260904114926 74 221 0.0 0.0 0.00 0.00 0.00 91 1014.4
20260904114426 74 221 0.0 0.0 0.00 0.00 0.00 91 1014.4
20260904113925 74 221 0.0 0.0 0.00 0.00 0.00 91 1014.3
20260904113424 74 221 0.0 0.0 0.00 0.00 0.00 91 1014.2
20260904112923 74 221 0.0 0.0 0.00 0.00 0.00 90 1014.2
20260904112422 74 221 0.0 0.0 0.00 0.00 0.00 90 1014.2
20260904111941 74 221 0.0 0.0 0.00 0.00 0.00 90 1014.2
20260904111420 74 221 0.0 0.0 0.00 0.00 0.00 90 1014.2
20260904110939 74 221 0.0 0.0 0.00 0.00 0.00 90 1014.1
20260904110417 74 221 0.0 0.0 0.00 0.00 0.00 90 1014.1
20260904105917 74 221 0.0 0.0 0.00 0.00 0.00 90 1014.0
20260904105417 74 221 0.0 0.0 0.00 0.00 0.00 91 1013.9
20260904104915 74 221 0.0 3.0 0.00 0.00 0.00 91 1013.7
20260904104416 74 221 0.0 3.0 0.00 0.00 0.00 91 1013.4
20260904103915 74 221 0.0 2.0 0.00 0.00 0.00 91 1013.3
20260904103432 74 181 0.0 0.0 0.00 0.00 0.00 91 1013.2
20260904102952 74 181 0.0 0.0 0.00 0.00 0.00 91 1013.2
20260904102429 74 181 0.0 0.0 0.00 0.00 0.00 91 1013.3
20260904101927 74 181 0.0 0.0 0.00 0.00 0.00 90 1013.3
20260904101426 74 181 0.0 0.0 0.00 0.00 0.00 90 1013.3
20260904100925 74 181 0.0 0.0 0.00 0.00 0.00 90 1013.4
20260904100423 74 181 0.0 0.0 0.00 0.00 0.00 90 1013.4
20260904095916 74 181 0.0 0.0 0.00 0.00 0.00 90 1013.5
20260904095419 73 181 0.0 0.0 0.00 0.00 0.00 90 1013.7
20260904094917 73 181 0.0 0.0 0.00 0.00 0.00 91 1013.7
20260904094416 73 181 0.0 1.0 0.00 0.00 0.00 90 1013.5
20260904093916 73 181 0.0 1.0 0.00 0.00 0.00 90 1013.6
20260904093414 73 181 0.0 0.0 0.00 0.00 0.00 90 1013.3
20260904092915 73 181 0.0 0.0 0.00 0.00 0.00 90 1013.3
20260904092412 73 181 0.0 0.0 0.00 0.00 0.00 90 1013.5
20260904091912 73 181 0.0 0.0 0.00 0.00 0.00 90 1013.5
20260904091431 73 181 0.0 0.0 0.00 0.00 0.00 90 1013.5
20260904090928 73 181 0.0 0.0 0.00 0.00 0.00 90 1013.7
20260904090449 73 181 0.0 0.0 0.00 0.00 0.00 90 1013.6
20260904085927 73 181 0.0 0.0 0.00 0.00 0.00 90 1013.5
20260904085429 73 181 0.0 0.0 0.00 0.00 0.00 89 1013.7
20260904084928 73 181 0.0 0.0 0.00 0.00 0.00 89 1014.1
20260904084428 73 181 0.0 0.0 0.00 0.00 0.00 90 1014.2
20260904083928 73 181 0.0 0.0 0.00 0.00 0.00 90 1014.3